Lexington Weather

Lexington, Massachusetts, USA

36°F
1/28/2020 4:22am 
  • Lexington Conditions: Overcast
  • Temperature: 36.1°F / 2.3°CColder 0.2°F than last hour.
  • Dew Point: 29.7°FIncreased 0.2°Fsince last hour.
  • Relative Humidity: 77%Increased 1.0% since last hour.
  • Wind: Wind from NNW NNW 2 mph, 10-min avg: 2 mph, gust: 3 mph
  • Barometer: 29.62 in Steady
  • Visibility: 10 miles
  • Rain Today: 0.00 in
  •   

Regional Weather Roundup
for Boston / Norton, MA

        
000
ASUS41 KBOX 280000
RWRBOX

REGIONAL WEATHER ROUNDUP
NATIONAL WEATHER SERVICE BOSTON/NORTON MA
700 PM EST MON JAN 27 2020

NOTE:  "FAIR" INDICATES FEW OR NO CLOUDS BELOW 12,000 FEET WITH NO 
SIGNIFICANT WEATHER AND/OR OBSTRUCTIONS TO VISIBILITY.

MAZALL-280100-
EASTERN MASSACHUSETTS
  
CITY           SKY/WX    TMP DP  RH WIND       PRES   REMARKS
BOSTON         CLOUDY    44  26  49 W14       29.60R                  
6HR MIN TEMP:  44; 6HR MAX TEMP:  48;                                

BEVERLY        CLOUDY    41  27  57 W8        29.58R                  
LAWRENCE       CLOUDY    40  27  59 W6        29.61R                  
BEDFORD        MOCLDY    41  26  55 W7        29.60R                  
BLUE HILL        N/A     37  26  64 W13       29.58R WCI  29          
NORWOOD        CLOUDY    44  26  49 W7        29.62R                  
MARSHFIELD     NOT AVBL                                               
PLYMOUTH       CLOUDY    39  28  64 W10       29.61R                  
TAUNTON        CLOUDY    40  26  57 W5        29.61R                  
NEW BEDFORD    CLOUDY    39  27  62 W7        29.62R                  
$$

MAZALL-280100-
CAPE COD AND THE ISLANDS
  
CITY           SKY/WX    TMP DP  RH WIND       PRES   REMARKS
FALMOUTH       CLOUDY    39  27  60 W9        29.61R                  
HYANNIS        NOT AVBL                                               
CHATHAM        MOCLDY    41  28  60 W5        29.61R                  
PROVINCETOWN   CLOUDY    41  32  70 W10       29.60R                  
NANTUCKET      CLOUDY    41  35  79 W10       29.62R                  
MARTHAS VNYRD  CLOUDY    41  31  67 W6        29.62R                  
$$
 
MAZALL-280100-
CENTRAL AND WESTERN MASSACHUSETTS
  
CITY           SKY/WX    TMP DP  RH WIND       PRES   REMARKS
WORCESTER      CLOUDY    36  25  64 W13       29.60R WCI  27          
6HR MIN TEMP:  36; 6HR MAX TEMP:  38; 6HR PCP: TRACE;                

FITCHBURG      MOCLDY    38  27  64 W9        29.61R WCI  31          
ORANGE         CLOUDY    39  27  62 W8G18     29.63R                  
SPRINGFIELD    CLOUDY    38  27  63 W9        29.63R                  
WESTFIELD      CLOUDY    39  27  62 W10       29.65R                  
NORTH ADAMS    CLOUDY    36  26  67 W13       29.64R WCI  27          
PITTSFIELD     CLOUDY    34  27  75 W10       29.62R WCI  26          
$$
 
RIZALL-280100-
RHODE ISLAND
  
CITY           SKY/WX    TMP DP  RH WIND       PRES   REMARKS
PROVIDENCE     CLOUDY    41  28  60 W12       29.63R                  
6HR MIN TEMP:  41; 6HR MAX TEMP:  47;                                

NEWPORT        CLOUDY    42  27  55 W9        29.63R                  
BLOCK ISLAND   CLOUDY    41  31  67 W8G18     29.66R                  
SMITHFIELD     CLOUDY    38  28  67 W10       29.62R WCI  31          
WESTERLY       CLOUDY    44  27  51 W3        29.66R                  
$$
 
CTZALL-280100-
CONNECTICUT
  
CITY           SKY/WX    TMP DP  RH WIND       PRES   REMARKS
BRADLEY INTL   CLOUDY    39  28  64 NW8       29.66R                  
6HR MIN TEMP:  38; 6HR MAX TEMP:  45;                                

HARTFORD       CLOUDY    42  29  59 W7        29.67R                  
BRIDGEPORT     CLOUDY    42  28  57 W9        29.69R                  
DANBURY        CLOUDY    39  27  62 W5        29.68R                  
GROTON         NOT AVBL                                               
NEW HAVEN      CLOUDY    43  30  60 W6        29.68R                  
CHESTER        NOT AVBL                                               
MERIDEN        CLOUDY    39  28  64 W5        29.67R                  
WILLIMANTIC    CLOUDY    40  28  62 W7        29.66R                  
OXFORD         CLOUDY    38  29  70 W3        29.66R                  
$$

MEZ002-015-021-024-NHZ003-005-008-011-012-014-VTZ005-008-280100-
NORTHERN NEW ENGLAND
  
CITY           SKY/WX    TMP DP  RH WIND       PRES   REMARKS
PORTLAND ME    CLOUDY    39  29  67 NW5       29.55R                  
6HR MIN TEMP:  37; 6HR MAX TEMP:  47;                                

BANGOR ME      CLOUDY    38  30  73 NW13G21   29.52R WCI  30          
CONCORD NH     CLOUDY    37  28  70 NW8       29.58R WCI  31          
MANCHESTER NH  MOCLDY    39  29  67 CALM      29.58R                  
NASHUA NH      MOCLDY    40  28  62 W5        29.61R                  
PORTSMOUTH NH  CLOUDY    40  27  59 W6        29.56R                  
JAFFREY NH     CLOUDY    36  27  69 VRB6      29.59R WCI  31          
KEENE NH       CLOUDY    38  28  67 W3        29.62R                  
BURLINGTON VT  FLURRIES  34  31  88 W3        29.64R                  
MT. WASHINGTON NOT AVBL                                               
$$

NYZ052-076-280100-
EASTERN NEW YORK
  
CITY           SKY/WX    TMP DP  RH WIND       PRES   REMARKS
ALBANY         CLOUDY    38  28  67 W10       29.68R WCI  31          
6HR MIN TEMP:  38; 6HR MAX TEMP:  42; 6HR PCP: TRACE;                

NEW YORK CITY  CLOUDY    42  27  55 NW16      29.71R                  
6HR MIN TEMP:  42; 6HR MAX TEMP:  45;                                

$$
 
ANZALL-280100-
MARINE OBSERVATIONS
  
STATION/POSITION TIME  TEMP    WIND        PRES    VSBY  WAVE
                       AIR SEA DIR/SP/G                  HT/PER
                 (UTC) (F)     (DEG/KT/KT) (MB)    (MI)  (FT/S)
BOSTON BUOY      2250   43 43  280/ 14/ 17 1001.1          3/ 9
BUZZARDS BAY     2300   42     280/ 18/ 19 1003.2R
NANTUCKET SOUND  NOT AVBL
MASS BAY-STELLWA 2304   42 41  300/ 12/ 14  999.7R  1 7/8  4/11
ISLE OF SHOALS   2300   42     280/ 11/ 12 1000.6R
S OF BLOCK IS    2330      44                N/A           6/ 7
$$

......................KEY.........................
  SKY/WX - SKY CONDITION/PRESENT WEATHER
  TMP    - TEMPERATURE IN FAHRENHEIT
  DWPT   - DEWPOINT IN FAHRENHEIT
  RH     - RELATIVE HUMIDITY IN PERCENT
  WIND   - DIRECTION AND SPEED IN MPH
  PRES   - MEAN SEA LEVEL PRESSURE IN INCHES OF HG
  WCI    - WIND CHILL INDEX
  VSB    - VISIBILITY IN MILES
  HX     - HEAT INDEX
  TC     - TEMPERATURE IN CELSIUS
  VRB    - VARIABLE WIND DIRECTION
  N/A    - NOT AVAILABLE
  
      

Other recent Regional Weather Roundups

Tue Jan 28, 4:10am

Tue Jan 28, 4:00am

Tue Jan 28, 3:10am

Tue Jan 28, 3:01am

Tue Jan 28, 2:10am

Tue Jan 28, 2:00am

Tue Jan 28, 1:10am

Tue Jan 28, 1:00am

Tue Jan 28, 12:10am

Tue Jan 28, 12:01am

Mon Jan 27, 11:10pm

Mon Jan 27, 11:00pm

Mon Jan 27, 10:10pm

Mon Jan 27, 10:00pm

Mon Jan 27, 9:10pm

Mon Jan 27, 9:00pm

Mon Jan 27, 8:10pm

Mon Jan 27, 8:01pm

Mon Jan 27, 7:10pm

Mon Jan 27, 6:10pm

Mon Jan 27, 6:00pm

Mon Jan 27, 5:10pm

Mon Jan 27, 5:00pm

Mon Jan 27, 4:10pm

Mon Jan 27, 4:00pm

Mon Jan 27, 3:10pm

Mon Jan 27, 3:00pm

Mon Jan 27, 2:10pm

Mon Jan 27, 2:00pm

Mon Jan 27, 1:10pm

Mon Jan 27, 1:00pm

Mon Jan 27, 12:10pm

Mon Jan 27, 12:00pm

Mon Jan 27, 11:10am

Mon Jan 27, 11:01am

Mon Jan 27, 10:10am

Mon Jan 27, 10:00am

Mon Jan 27, 9:10am

Mon Jan 27, 9:00am

Mon Jan 27, 8:10am

Mon Jan 27, 8:00am

Mon Jan 27, 7:10am

Mon Jan 27, 7:00am

Mon Jan 27, 6:10am

Mon Jan 27, 6:00am

Mon Jan 27, 5:10am

Mon Jan 27, 5:00am

Mon Jan 27, 4:10am

Mon Jan 27, 4:01am

Mon Jan 27, 3:10am

Mon Jan 27, 3:00am

Mon Jan 27, 2:10am

Mon Jan 27, 2:00am

Mon Jan 27, 1:10am

Mon Jan 27, 1:00am

Mon Jan 27, 12:10am

Mon Jan 27, 12:00am

Sun Jan 26, 11:10pm

Sun Jan 26, 11:00pm

Sun Jan 26, 10:10pm

Sun Jan 26, 10:00pm

Sun Jan 26, 9:10pm

Sun Jan 26, 9:01pm

Sun Jan 26, 8:10pm

Sun Jan 26, 8:00pm

Sun Jan 26, 7:10pm

Sun Jan 26, 7:00pm

Sun Jan 26, 6:10pm

Sun Jan 26, 6:01pm

Sun Jan 26, 5:10pm

Sun Jan 26, 5:01pm

Sun Jan 26, 4:10pm

Sun Jan 26, 4:00pm

Sun Jan 26, 3:10pm

Sun Jan 26, 3:01pm

Sun Jan 26, 2:10pm

Sun Jan 26, 2:01pm

Sun Jan 26, 1:10pm

Sun Jan 26, 1:00pm

Sun Jan 26, 12:10pm

Sun Jan 26, 12:00pm

Sun Jan 26, 11:10am

Sun Jan 26, 11:01am

Sun Jan 26, 10:10am

Sun Jan 26, 10:01am

Sun Jan 26, 9:10am

Sun Jan 26, 9:00am

Sun Jan 26, 8:10am

Sun Jan 26, 8:00am

Sun Jan 26, 7:10am

Sun Jan 26, 7:00am

Sun Jan 26, 6:10am

Sun Jan 26, 6:00am

Sun Jan 26, 5:10am

Sun Jan 26, 5:00am

Sun Jan 26, 4:10am

Sun Jan 26, 4:01am

Sun Jan 26, 3:10am

Sun Jan 26, 3:01am

Sun Jan 26, 2:10am

Sun Jan 26, 2:00am

Sun Jan 26, 1:10am

Sun Jan 26, 1:00am

Sun Jan 26, 12:10am

Sun Jan 26, 12:00am

Sat Jan 25, 11:10pm

Sat Jan 25, 11:00pm

Sat Jan 25, 10:10pm

Sat Jan 25, 10:01pm

Sat Jan 25, 9:10pm

Sat Jan 25, 9:01pm

Sat Jan 25, 8:10pm

Sat Jan 25, 8:01pm

Sat Jan 25, 7:10pm

Sat Jan 25, 7:01pm

Sat Jan 25, 6:10pm

Sat Jan 25, 6:01pm

Sat Jan 25, 5:10pm

Sat Jan 25, 5:01pm

Sat Jan 25, 4:10pm

Sat Jan 25, 4:00pm

Sat Jan 25, 3:10pm

Sat Jan 25, 3:01pm

Sat Jan 25, 2:10pm

Sat Jan 25, 2:00pm

Sat Jan 25, 1:10pm

Sat Jan 25, 1:00pm

Sat Jan 25, 12:10pm

Sat Jan 25, 12:00pm

Sat Jan 25, 11:10am

Sat Jan 25, 11:00am

Sat Jan 25, 10:10am

Sat Jan 25, 10:00am

Sat Jan 25, 9:10am

Sat Jan 25, 9:00am

Sat Jan 25, 8:10am

Sat Jan 25, 8:01am

Sat Jan 25, 7:10am

Sat Jan 25, 7:00am

Sat Jan 25, 6:10am

Sat Jan 25, 6:00am

Sat Jan 25, 5:10am

Sat Jan 25, 5:00am

Meta data:

ID: cd777949-d90c-4d06-94aa-4d9a01c7e6cc
Link: https://api.weather.gov/products/cd777949-d90c-4d06-94aa-4d9a01c7e6cc